Location: Centerville
(32.8776°N, 96.6203°W)
Time: 13:32:36
(UTC+00:00)

Cosmos 1782 Rocket - Pass Details

Date: 17 June 2021
Orbit: 607 x 632 km, 82.5° (Epoch: 30 July)

Event Time Altitude Azimuth Distance (km) Brightness Sun altitude
Rises 02:05:52 0° 347° (NNW) 2,869 7.8 -6.1°
Reaches altitude 10° 02:08:07 10° 342° (NNW) 1,961 7.0 -6.5°
Maximum altitude 02:12:19 51° 267° (W) 767 4.5 -7.2°
Drops below altitude 10° 02:16:30 10° 191° (SSW) 1,952 5.9 -7.9°
Sets 02:18:45 0° 187° (S) 2,854 6.7 -8.3°
